Regional Weather Roundup
Issued by NWS

Home | Current Version | Previous Version | Text Only | Print | Product List | Glossary Off
Versions: 1 2 3 4 5 6 7 8 9 10 11 12 13 14 15 16 17 18 19 20 21 22 23 24 25 26 27 28 29 30 31 32 33 34 35 36 37 38 39 40 41 42 43 44 45 46 47 48 49 50

000
ASUS43 KMPX 241501
RWRMN
WEATHER ROUNDUP FOR MINNESOTA
NATIONAL WEATHER SERVICE TWIN CITIES/CHANHASSEN MN
1000 AM CDT WED AUG 24 2016


NOTE: "FAIR" INDICATES FEW OR NO CLOUDS BELOW 12,000 FEET WITH NO
SIGNIFICANT WEATHER AND/OR OBSTRUCTIONS TO VISIBILITY. N/A MEANS
CURRENT SKY AND/OR WEATHER CONDITIONS ARE NOT AVAILABLE.

MNZ060>063-068>070-241600-
   Twin Cities Metro

CITY           SKY/WX    TMP DP  RH WIND       PRES   REMARKS
TWIN CITIES    CLOUDY    71  66  84 W8        29.88R
ST PAUL        CLOUDY    72  67  84 W7        29.88R
CRYSTAL        CLOUDY    72  66  81 W7        29.87R
BLAINE         CLOUDY    72  70  94 W8        29.88R
LAKEVILLE      CLOUDY    70  70 100 W8        29.89R
EDEN PRAIRIE   CLOUDY    71  68  90 W5        29.88R
LAKEVILLE      CLOUDY    70  70 100 W8        29.89R
SOUTH ST PAUL  CLOUDY    72  69  89 W6        29.88R
LAKE ELMO      CLOUDY    72  68  88 W8        29.89R
$$
MNZ001>005-007-008-013>017-022>024-027-028-241600-
   Northwest Minnesota

CITY           SKY/WX    TMP DP  RH WIND       PRES   REMARKS
BEMIDJI        SUNNY     70  54  57 W12       29.85R
HALLOCK        SUNNY     66  54  63 W13G20    29.80S
ROSEAU         SUNNY     68  57  68 SW9       29.78F
WARROAD        SUNNY     68  61  77 W8        29.78S
THIEF RVR FALL SUNNY     66  54  65 W14       29.84S
CROOKSTON      SUNNY     66  55  68 NW18      29.85S
FOSSTON        SUNNY     64  54  68 W10       29.87R
DETROIT LAKES  SUNNY     66  52  59 NW12      29.90S
MOORHEAD       SUNNY     68  54  60 W13       29.90S
PARK RAPIDS    SUNNY     71  53  52 W13       29.87R
MAHNOMEN       FAIR      65  53  66 W9        29.88R
$$
MNZ006-009>011-018-025>026-241600-
   North Central Minnesota

CITY           SKY/WX    TMP DP  RH WIND       PRES   REMARKS
BAUDETTE       SUNNY     70  61  73 W10       29.78S
FLAG ISLAND    SUNNY     68  61  77 W7        29.74S HAZE
INTL FALLS     PTSUNNY   72  65  78 W9        29.76S
WASKISH        SUNNY     70  61  73 W14       29.81S
BIG FORK       SUNNY     73  63  68 W5        29.81R
LONGVILLE      SUNNY     73  57  56 W5        29.85R
GRAND RAPIDS   PTSUNNY   73  64  73 W13       29.84S
CRANE LAKE     CLOUDY    70  64  83 S6        29.79R
ORR            CLOUDY    72  64  78 W5        29.77R
COOK           MOSUNNY   72  66  83 SW7       29.80R
WALKER         FAIR      69  56  63 W9G20     29.85R
$$
MNZ012-019>021-037-241600-
   Northeast Minnesota

CITY           SKY/WX    TMP DP  RH WIND       PRES   REMARKS
DULUTH         MOSUNNY   71  65  81 W5        29.83R
ELY            MOSUNNY   72  64  78 SW7       29.80S
HIBBING        CLOUDY    67  65  93 SW6       29.82R
EVELETH        CLOUDY    68  65  90 SW6       29.83R
DULUTH HARBOR  CLOUDY    72  66  83 W3        29.81S
TWO HARBORS    MOSUNNY   73  66  78 S3        29.79S
SILVER BAY     MOSUNNY   72  66  83 CALM      29.79S
GRAND MARAIS     N/A     71  65  81 S5        29.78F
G MARAIS ARPRT CLOUDY    68  61  77 S3        29.84S
$$
MNZ029>031-032-039>041-046>048-054>057-064-241600-
   West Central Minnesota

CITY           SKY/WX    TMP DP  RH WIND       PRES   REMARKS
FERGUS FALLS   SUNNY     64  54  68 NW14G20   29.93R
WHEATON        SUNNY     70  55  60 W14       29.95R
MORRIS         SUNNY     70  55  60 NW9       29.93R
ALEXANDRIA     SUNNY     69  55  60 NW10      29.94R
ELBOW LAKE     FAIR      65  56  71 NW9       29.93R
WADENA         SUNNY     68  55  64 W8        29.89R
GLENWOOD       SUNNY     70  55  60 W10       29.94R
APPLETON       SUNNY     70  54  56 NW8       29.93S
BENSON         SUNNY     70  52  52 N9        29.94R
ORTONVILLE     SUNNY     72  52  49 NW12      29.94R
MADISON        SUNNY     70  55  60 NW7       29.95S
WILLMAR        FAIR      70  61  73 NW10      29.94R
$$
MNZ033>034-036-042>043-049>051-058-059-241600-
   Central Minnesota

CITY           SKY/WX    TMP DP  RH WIND       PRES   REMARKS
ST CLOUD       MOSUNNY   75  64  68 W7        29.88R
SAUK CENTRE    FAIR      71  60  67 W10       29.92R
PAYNESVILLE    SUNNY     73  60  64 W12       29.92R
AITKIN         MOSUNNY   75  61  60 W6        29.84R
PINE RIVER     SUNNY     72  57  60 W6        29.90R
BRAINERD       SUNNY     72  58  61 W10       29.87R
STAPLES        SUNNY     72  55  56 W13       29.89R
LONG PRAIRIE   FAIR      70  59  68 SW8       29.92R
LITTLE FALLS   SUNNY     72  57  60 NW7       29.89R
LITCHFIELD     SUNNY     73  64  73 NW8       29.91R
BUFFALO        PTSUNNY   71  66  84 W7        29.90R
MAPLE LAKE     SUNNY     74  69  84 NW6       29.90R
HUTCHINSON     SUNNY     74  69  82 W5        29.92R
$$
MNZ037-044-045-052-053-241600-
   East Central Minnesota

CITY           SKY/WX    TMP DP  RH WIND       PRES   REMARKS
PRINCETON      CLOUDY    72  68  88 W6        29.88
MORA           CLOUDY    68  63  83 W3        29.88R
CAMBRIDGE      CLOUDY    72  66  83 W5        29.86R
RUSH CITY      RAIN      70  66  87 W3        29.87R
MOOSE LAKE     CLOUDY    68  64  88 W6        29.83R
HINCKLEY         N/A    N/A N/A N/A MISG        N/A
CLOQUET        CLOUDY    70  64  83 W6        29.84R
MCGREGOR       PTSUNNY   72  66  83 W8        29.84S
$$
MNZ071>073-080-081-089-090-097-098-241600-
   Southwest Minnesota

CITY           SKY/WX    TMP DP  RH WIND       PRES   REMARKS
MONTEVIDEO     SUNNY     72  61  68 N10       29.96R
GRANITE FALLS  SUNNY     70  58  66 W9        29.96R
CANBY          SUNNY     71  55  56 W9        29.97S
MARSHALL       SUNNY     70  56  61 NW12      29.96R
REDWOOD FALLS  SUNNY     70  61  73 NW9       29.93R
OLIVIA         SUNNY     70  61  73 NW9       29.93R
PIPESTONE      CLOUDY    68  55  64 NW7       29.98R
WINDOM         CLOUDY    70  61  73 NW8       29.95S
WORTHINGTON    CLOUDY    71  60  68 N10       29.96F
JACKSON        CLOUDY    70  61  73 NW8       29.95S
TRACY          SUNNY     70  58  66 NW10      29.96S
$$
MNZ065>067-074>077-082>085-091>093-241600-
   South Central Minnesota

CITY           SKY/WX    TMP DP  RH WIND       PRES   REMARKS
MANKATO        CLOUDY    70  66  88 NW10      29.91R
NEW ULM          N/A     72  70  94 NW8       29.92R
ST JAMES       CLOUDY    64  61  88 NW9       29.93S
FAIRMONT         N/A    N/A N/A N/A MISG        N/A
GLENCOE        PTSUNNY   70  70 100 W5        29.90S
FARIBAULT      CLOUDY    72  70  94 W8        29.91R
OWATONNA       CLOUDY    72  68  88 NW9       29.90R
WASECA         CLOUDY    72  70  94 NW8       29.92R
ALBERT LEA     CLOUDY    72  70  94 NW5       29.90R FOG
$$
MNZ078>079-086>088-094>096-241600-
   Southeast Minnesota

CITY           SKY/WX    TMP DP  RH WIND       PRES   REMARKS
ROCHESTER      CLOUDY    74  71  91 W7        29.89S
RED WING       PTSUNNY   73  70  88 NW6       29.86R
STANTON        CLOUDY    72  68  88 NW6       29.88R
DODGE CENTER   PTSUNNY   75  72  88 W7        29.89S
WINONA         CLOUDY    73  70  88 CALM      29.86F
AUSTIN         CLOUDY    72  68  88 NW6       29.89S FOG
PRESTON        CLOUDY    72  69  92 S6        29.90R FOG
$$
ABBREVIATIONS USED IN REMARKS
   TC - TEMPERATURES IN CELSIUS
  WCI - WIND CHILL INDEX
   HX - HEAT INDEX
  VSB - VISIBILITY
$$




USA.gov is the U.S. government's official web portal to all federal, state and local government web resources and services.